Weather History for Tampa, FL

Change the Weather History Date:

Thursday, January 10, 2013

  Actual Average Record
Temperature  
Mean Temperature 77 °F 60 °F  
Max Temperature 84 °F 70 °F 85 °F (1991)
Min Temperature 70 °F 51 °F 24 °F (1970)
Degree Days  
Heating Degree Days 0 6  
Month to date heating degree days 9 60  
Since 1 July heating degree days 135 243  
Cooling Degree Days 12 2  
Month to date cooling degree days 43 20  
Year to date cooling degree days 43 20  
Growing Degree Days 26 (Base 50)    
Moisture  
Dew Point 64 °F    
Average Humidity 68    
Maximum Humidity 90    
Minimum Humidity 46    
Precipitation  
Precipitation 0.00 in 0.07 in 0.83 in (1973)
Month to date precipitation 0.46 0.69  
Year to date precipitation 0.46 0.69  
Sea Level Pressure  
Sea Level Pressure 30.27 in    
Wind  
Wind Speed 7 mph (East)    
Max Wind Speed 15 mph    
Max Gust Speed 30 mph    
Visibility 10 miles    
Events      
T = Trace of Precipitation, MM = Missing Value Source: NWS Daily Summary

Daily Weather History Graph

Daily Weather History Graph

Search for Another Location

Airport:

Trip Planner

Search our weather history database for the weather conditions in past years. The results will help you decide how hot, cold, wet, or windy it might be!

Date:

Astronomy

Jan. 10, 2013 Rise Set
Actual Time 7:22 AM EST 5:53 PM EST
Civil Twilight 6:57 AM EST 6:18 PM EST
Nautical Twilight 6:28 AM EST 6:47 PM EST
Astronomical Twilight 6:00 AM EST 7:15 PM EST
Moon 6:01 AM EST (1/10) 4:58 PM EST (1/10)
Length of Visible Light 11h 21m
Length of Day
10h 30m
Waning Crescent, 2% of the Moon is Illuminated
Jan 10
Waning Crescent
Jan 11
New
Jan 18
First Quarter
Jan 26
Full
Feb 3
Last Quarter

Hourly Weather History & Observations

Time (EST) Temp. Heat Index Dew Point Humidity Pressure Visibility Wind Dir Wind Speed Gust Speed Precip Events Conditions
12:22 AM 71.6 °F - 68.0 °F 88% 30.30 in 10.0 mi East 5.8 mph - N/A   Mostly Cloudy
12:27 AM 71.6 °F - 68.0 °F 88% 30.30 in 10.0 mi East 4.6 mph - N/A   Mostly Cloudy
12:53 AM 72.0 °F - 68.0 °F 87% 30.31 in 9.0 mi East 6.9 mph - N/A   Mostly Cloudy
1:53 AM 72.0 °F - 68.0 °F 87% 30.30 in 10.0 mi East 5.8 mph - N/A   Mostly Cloudy
2:53 AM 73.0 °F - 68.0 °F 84% 30.29 in 10.0 mi East 6.9 mph 25.3 mph N/A   Mostly Cloudy
3:19 AM 71.6 °F - 66.2 °F 83% 30.28 in 10.0 mi East 5.8 mph - N/A   Partly Cloudy
3:53 AM 72.0 °F - 66.9 °F 84% 30.28 in 10.0 mi Variable 5.8 mph - N/A   Partly Cloudy
4:53 AM 71.6 °F - 66.2 °F 83% 30.27 in 10.0 mi Variable 5.8 mph - N/A   Scattered Clouds
5:53 AM 71.1 °F - 66.9 °F 87% 30.28 in 10.0 mi Variable 3.5 mph - N/A   Partly Cloudy
6:53 AM 70.0 °F - 66.9 °F 90% 30.29 in 10.0 mi East 4.6 mph - N/A   Mostly Cloudy
7:21 AM 69.8 °F - 66.2 °F 88% 30.30 in 8.0 mi Variable 3.5 mph - N/A   Mostly Cloudy
7:53 AM 70.0 °F - 66.9 °F 90% 30.30 in 8.0 mi Variable 3.5 mph - N/A   Scattered Clouds
8:53 AM 72.0 °F - 66.9 °F 84% 30.31 in 10.0 mi East 4.6 mph - N/A   Scattered Clouds
9:53 AM 73.4 °F - 66.2 °F 78% 30.30 in 10.0 mi ESE 8.1 mph - N/A   Scattered Clouds
10:53 AM 78.1 °F - 63.0 °F 60% 30.27 in 10.0 mi ESE 15.0 mph 21.9 mph N/A   Partly Cloudy
11:53 AM 80.1 °F 80.9 °F 60.1 °F 50% 30.24 in 10.0 mi East 12.7 mph 20.7 mph N/A   Clear
12:53 PM 81.0 °F 81.3 °F 59.0 °F 47% 30.23 in 10.0 mi East 9.2 mph 18.4 mph N/A   Scattered Clouds
1:53 PM 82.0 °F 82.1 °F 59.0 °F 45% 30.22 in 10.0 mi ESE 5.8 mph - N/A   Scattered Clouds
2:53 PM 82.9 °F 82.8 °F 59.0 °F 44% 30.22 in 10.0 mi SE 5.8 mph - N/A   Scattered Clouds
3:53 PM 82.9 °F 83.2 °F 60.1 °F 46% 30.23 in 10.0 mi ESE 4.6 mph - N/A   Scattered Clouds
4:53 PM 82.9 °F 83.3 °F 61.0 °F 47% 30.23 in 10.0 mi East 6.9 mph - N/A   Partly Cloudy
5:53 PM 80.1 °F 81.1 °F 61.0 °F 52% 30.23 in 10.0 mi Variable 4.6 mph - N/A   Scattered Clouds
6:53 PM 79.0 °F - 61.0 °F 54% 30.24 in 10.0 mi East 5.8 mph - N/A   Scattered Clouds
7:53 PM 77.0 °F - 62.1 °F 60% 30.25 in 10.0 mi ESE 6.9 mph - N/A   Mostly Cloudy
8:53 PM 75.0 °F - 62.1 °F 64% 30.27 in 10.0 mi ESE 10.4 mph 17.3 mph N/A   Partly Cloudy
9:53 PM 73.0 °F - 61.0 °F 66% 30.28 in 10.0 mi ESE 5.8 mph - N/A   Scattered Clouds
10:53 PM 71.6 °F - 60.8 °F 69% 30.28 in 10.0 mi Variable 6.9 mph - N/A   Mostly Cloudy
11:53 PM 71.1 °F - 62.1 °F 73% 30.28 in 10.0 mi Variable 4.6 mph - N/A   Mostly Cloudy